レモン彗星

397P/Lemmon (2012)

English version
Home page
Updated on October 17, 2020

---------------------------------------------------------------------

・ プロフィール

符号 397P/2012 SB6
発見日 2012年9月17日
発見光度 19.3等
発見者 R. A. Kowalski (Mount Lemmon Survey)

・ 写真集

・ 軌道要素

Epoch 2012 Nov. 9.0 TT = JDT 2456240.5                                          
T 2012 Oct. 31.97307 TT                                 Rudenko                 
q   2.4064482            (2000.0)            P               Q                  
n   0.12745359     Peri.   12.78702     +0.92559062     -0.37720050             
a   3.9105214      Node     9.55718     +0.32834362     +0.75846559             
e   0.3846222      Incl.   10.98970     +0.18834136     +0.53146001             
P   7.73                                                                        
From 182 observations 2012 Sept. 14-2020 June 30, mean residual 0".5.           

・ 光度変化

        m1 = 13.5 + 5 logΔ + 10.0 log r

---------------------------------------------------------------------

軌道要素はM.P.E.C. 2020-N01に掲載されたものです。
光度グラフはComet for Windowsで作成したものです。

---------------------------------------------------------------------

Copyright(C) Seiichi Yoshida (comet@aerith.net). All rights reserved.